Other Public Products
Issued by NWS Charleston, SC

Current Version | Previous Version | Text Only | Print | Product List | Glossary Off
Versions: 1 2 3 4 5 6 7 8 9 10 11 12 13 14 15 16 17 18 19 20 21 22 23 24 25 26 27 28 29 30 31 32 33 34 35 36 37 38 39 40 41 42 43 44 45 46 47 48 49 50

821
FPUS82 KCHS 200512
OPUCHS

TEST...KCHS/KSAV Gateway Observations...TEST
National Weather Service Charleston SC
100 AM EDT THU JUL 20 2017

NOTE: "fair" indicates few or no clouds below 12,000 feet with no
significant weather and/or obstructions to visibility.

SCZ050-WAZ558-NCZ071-TXZ119-213-PAZ071-DCZ001-FLZ074-172-MI076-
NYZ176-178-MAZ016-IL014-TNZ027-NJZ106-GAZ044-MD014-200600-

...Gateway Observations for Charleston International...

CITY           SKY/WX    TMP DP  RH WIND       PRES   REMARKS
Chas Airport   PTCLDY    73  70  90 CALM      30.09S
Seattle        MOCLDY    63  53  70 W5        30.04R
Charlotte      PTCLDY    74  66  76 S3        30.11F
Dallas DFW     PTCLDY    85  70  60 SE7       30.05R
Dallas Love    PTCLDY    88  70  55 S14       30.06R HX  93
Philladelphia  PTCLDY    81  74  79 SW3       30.01S
Wash National  MOCLDY    83  76  79 S8        30.04R HX  91
Baltimore      PTCLDY    80  73  79 SW5       30.02S
Miami          CLOUDY    82  76  81 CALM      30.10F
Detroit        CLOUDY    75  71  87 CALM      30.05S
Newark         PTCLDY    83  70  64 SW8       29.98S
Laguardia      PTCLDY    85  74  69 SE6       29.97F HX  92
J F K          MOCLDY    81  76  84 SW9       29.99S
Boston Logan   PTCLDY    79  62  56 W8        29.94F
Ft. Lauderdale MOCLDY    82  77  84 SE5       30.09  HX  90
Chicago O`Hare LGT RAIN  72  66  81 NW8G22    30.08S
Chicago Midway LGT RAIN  72  68  87 VRB3      30.09R
Houston Bush   PTCLDY    83  75  77 S5        30.08R HX  90
Houston Hobby  PTCLDY    83  75  77 S5        30.08R HX  90
Nashville      PTCLDY    77  74  90 S3        30.13R
Atlanta        PTCLDY    79  70  74 S7        30.12S

$$

GAZ044-118-TXZ119-213-NCZ071-DCZ001-MDZ014-506-PAZ021-071-NJZ106-
NYZ176-178-MAZ106-OHZ011-021-055-MIZ076-KYZ091-ILZ014-INZ047-
MNZ060-ONZ431-200600-

...Gateway Observations for Savannah International...

CITY           SKY/WX    TMP DP  RH WIND       PRES   REMARKS
Savannah Arpt  CLEAR     75  73  93 W3        30.10S
Atlanta        PTCLDY    79  70  74 S7        30.12S
Charlotte      PTCLDY    74  66  76 S3        30.11F
Dallas DFW     PTCLDY    85  70  60 SE7       30.05R
Houston Bush   PTCLDY    83  75  77 S5        30.08R HX  90
Wash National  MOCLDY    83  76  79 S8        30.04R HX  91
Wash Dulles    PTCLDY    79  72  79 CALM      30.05R
Baltimore      PTCLDY    80  73  79 SW5       30.02S
Philadelphia   PTCLDY    81  74  79 SW3       30.01S
Newark         PTCLDY    83  70  64 SW8       29.98S
Laguardia      PTCLDY    85  74  69 SE6       29.97F HX  92
J F K          MOCLDY    81  76  84 SW9       29.99S
Boston         PTCLDY    79  62  56 W8        29.94F
Pittsburg      PTCLDY    77  69  76 W5        30.10S
Akron          PTCLDY    74  66  76 S5        30.09F
Cleveland      PTCLDY    78  68  71 SE3       30.08S
Cincinnati     CLEAR     71  68  90 CALM      30.12R
Columbus       CLEAR     72  70  96 SW3       30.09S
Detroit        CLOUDY    75  71  87 CALM      30.05S
Chicago O`Hare LGT RAIN  72  66  81 NW8G22    30.08S
Minneapolis    LGT RAIN  70  67  90 N6        29.96R
Indianapolis   CLEAR     76  73  91 SW6       30.11R
Toronto Canada PTCLDY    68  59  73 NW9       30.02S

$$




USA.gov is the U.S. government's official web portal to all federal, state and local government web resources and services.